| time (UTC) | temp F | wind direction | speed MPH | gust MPH | rain 1hr in | rain 24hr in | rain mn in | humidity % | barometer mb |
| 20260906064508 | 60 | 46 | 0.0 | 1.0 | 0.00 | 0.00 | 0.00 | 94 | 1012.1 |
| 20260906063006 | 60 | 46 | 1.0 | 3.0 | 0.00 | 0.00 | 0.00 | 94 | 1012.2 |
| 20260906061504 | 60 | 336 | 1.0 | 4.0 | 0.00 | 0.00 | 0.00 | 94 | 1012.1 |
| 20260906060006 | 60 | 330 | 0.0 | 2.0 | 0.00 | 0.00 | 0.00 | 94 | 1012.4 |
| 20260906054502 | 60 | 328 | 0.0 | 2.0 | 0.00 | 0.00 | 0.00 | 95 | 1012.4 |
| 20260906053100 | 60 | 328 | 0.0 | 2.0 | 0.00 | 0.00 | 0.00 | 95 | 1012.4 |
| 20260906051558 | 59 | 328 | 0.0 | 0.0 | 0.00 | 0.00 | 0.00 | 94 | 1012.4 |
| 20260906050116 | 59 | 328 | 0.0 | 0.0 | 0.00 | 0.00 | 0.00 | 94 | 1012.4 |
| 20260906044556 | 59 | 328 | 0.0 | 0.0 | 0.00 | 0.00 | 0.00 | 94 | 1012.3 |
| 20260906043106 | 59 | 328 | 0.0 | 0.0 | 0.00 | 0.00 | 0.00 | 93 | 1012.2 |
| 20260906041552 | 59 | 328 | 0.0 | 0.0 | 0.00 | 0.00 | 0.00 | 93 | 1012.1 |
| 20260906040049 | 60 | 328 | 0.0 | 0.0 | 0.00 | 0.00 | 0.00 | 92 | 1012.1 |
| 20260906034548 | 60 | 328 | 0.0 | 0.0 | 0.00 | 0.00 | 0.00 | 92 | 1012.0 |
| 20260906033047 | 61 | 328 | 0.0 | 0.0 | 0.00 | 0.00 | 0.00 | 92 | 1011.9 |
| 20260906031546 | 61 | 328 | 0.0 | 0.0 | 0.00 | 0.00 | 0.00 | 92 | 1011.9 |
| 20260906030045 | 61 | 328 | 0.0 | 0.0 | 0.00 | 0.00 | 0.00 | 92 | 1011.7 |
| 20260906024543 | 61 | 328 | 0.0 | 0.0 | 0.00 | 0.00 | 0.00 | 92 | 1011.8 |
| 20260906023044 | 61 | 328 | 0.0 | 0.0 | 0.00 | 0.00 | 0.00 | 92 | 1011.9 |
| 20260906021559 | 61 | 328 | 0.0 | 3.0 | 0.00 | 0.00 | 0.00 | 92 | 1011.8 |
| 20260906020042 | 61 | 328 | 1.0 | 2.0 | 0.00 | 0.00 | 0.00 | 92 | 1011.8 |
| 20260906014541 | 61 | 328 | 0.0 | 0.0 | 0.00 | 0.00 | 0.00 | 92 | 1011.7 |
| 20260906013040 | 61 | 328 | 0.0 | 2.0 | 0.00 | 0.00 | 0.00 | 92 | 1011.5 |
| 20260906011539 | 61 | 328 | 0.0 | 2.0 | 0.00 | 0.00 | 0.00 | 91 | 1011.4 |
| 20260906010041 | 62 | 328 | 0.0 | 1.0 | 0.00 | 0.00 | 0.00 | 90 | 1011.5 |
| 20260906004542 | 62 | 328 | 0.0 | 2.0 | 0.00 | 0.00 | 0.00 | 89 | 1011.5 |
| 20260906003037 | 63 | 328 | 0.0 | 0.0 | 0.00 | 0.00 | 0.00 | 88 | 1011.2 |
| 20260906001536 | 63 | 328 | 0.0 | 0.0 | 0.00 | 0.00 | 0.00 | 87 | 1011.2 |
| 20260906000035 | 64 | 328 | 0.0 | 1.0 | 0.00 | 0.00 | 0.00 | 86 | 1011.1 |
| 20260905234533 | 65 | 328 | 0.0 | 0.0 | 0.00 | 0.00 | 0.00 | 83 | 1010.9 |
| 20260905233031 | 67 | 328 | 0.0 | 0.0 | 0.00 | 0.00 | 0.00 | 82 | 1010.7 |
| 20260905231529 | 68 | 328 | 0.0 | 3.0 | 0.00 | 0.00 | 0.00 | 79 | 1010.5 |
| 20260905230028 | 69 | 70 | 1.0 | 3.0 | 0.00 | 0.00 | 0.00 | 78 | 1010.4 |
| 20260905224527 | 70 | 348 | 0.0 | 2.0 | 0.00 | 0.00 | 0.00 | 77 | 1010.6 |
| 20260905223026 | 70 | 348 | 0.0 | 1.0 | 0.00 | 0.00 | 0.00 | 76 | 1010.5 |
| 20260905221525 | 71 | 50 | 1.0 | 3.0 | 0.00 | 0.00 | 0.00 | 75 | 1010.3 |
| 20260905220028 | 72 | 350 | 0.0 | 7.0 | 0.00 | 0.00 | 0.00 | 74 | 1010.1 |
| 20260905214524 | 74 | 87 | 2.0 | 8.0 | 0.00 | 0.00 | 0.00 | 70 | 1010.0 |
| 20260905213025 | 75 | 80 | 1.0 | 6.0 | 0.00 | 0.00 | 0.00 | 67 | 1009.8 |
| 20260905211523 | 75 | 313 | 2.0 | 9.0 | 0.00 | 0.00 | 0.00 | 68 | 1009.8 |
| 20260905210026 | 74 | 44 | 2.0 | 8.0 | 0.00 | 0.00 | 0.00 | 70 | 1009.7 |
| 20260905204521 | 75 | 221 | 2.0 | 10.0 | 0.00 | 0.00 | 0.00 | 68 | 1009.5 |
| 20260905203021 | 75 | 282 | 3.0 | 9.0 | 0.00 | 0.00 | 0.00 | 70 | 1009.5 |
| 20260905201527 | 73 | 59 | 2.0 | 6.0 | 0.00 | 0.00 | 0.00 | 69 | 1009.6 |
| 20260905200029 | 74 | 42 | 3.0 | 9.0 | 0.00 | 0.00 | 0.00 | 70 | 1009.4 |
| 20260905194520 | 75 | 62 | 4.0 | 10.0 | 0.00 | 0.00 | 0.00 | 68 | 1009.3 |
| 20260905193027 | 75 | 360 | 2.0 | 13.0 | 0.00 | 0.00 | 0.00 | 67 | 1009.3 |
| 20260905191519 | 75 | 261 | 1.0 | 7.0 | 0.00 | 0.00 | 0.00 | 67 | 1009.3 |
| 20260905190017 | 75 | 30 | 1.0 | 9.0 | 0.00 | 0.00 | 0.00 | 67 | 1009.3 |
| 20260905184522 | 75 | 271 | 2.0 | 10.0 | 0.00 | 0.00 | 0.00 | 66 | 1009.4 |
| 20260905183025 | 74 | 324 | 3.0 | 9.0 | 0.00 | 0.00 | 0.00 | 69 | 1009.4 |
| 20260905181515 | 75 | 286 | 3.0 | 10.0 | 0.00 | 0.00 | 0.00 | 68 | 1009.4 |
| 20260905180016 | 74 | 61 | 4.0 | 10.0 | 0.00 | 0.00 | 0.00 | 70 | 1009.6 |
| 20260905174528 | 74 | 19 | 4.0 | 10.0 | 0.00 | 0.00 | 0.00 | 68 | 1009.7 |
| 20260905173015 | 74 | 346 | 3.0 | 9.0 | 0.00 | 0.00 | 0.00 | 67 | 1009.7 |
| 20260905171514 | 75 | 269 | 2.0 | 10.0 | 0.00 | 0.00 | 0.00 | 68 | 1009.6 |
| 20260905170012 | 75 | 40 | 3.0 | 8.0 | 0.00 | 0.00 | 0.00 | 65 | 1009.6 |
| 20260905164508 | 73 | 304 | 3.0 | 7.0 | 0.00 | 0.00 | 0.00 | 70 | 1009.7 |
| 20260905163008 | 72 | 116 | 0.0 | 8.0 | 0.00 | 0.00 | 0.00 | 71 | 1009.7 |
| 20260905161506 | 72 | 336 | 1.0 | 9.0 | 0.00 | 0.00 | 0.00 | 72 | 1009.7 |
| 20260905160013 | 72 | 281 | 2.0 | 10.0 | 0.00 | 0.00 | 0.00 | 70 | 1009.7 |
| 20260905154505 | 72 | 104 | 2.0 | 9.0 | 0.00 | 0.00 | 0.00 | 71 | 1009.8 |
| 20260905153008 | 72 | 44 | 7.0 | 13.0 | 0.00 | 0.00 | 0.00 | 69 | 1009.9 |
| 20260905151505 | 73 | 310 | 4.0 | 11.0 | 0.00 | 0.00 | 0.00 | 70 | 1009.9 |
| 20260905150003 | 72 | 63 | 3.0 | 9.0 | 0.00 | 0.00 | 0.00 | 73 | 1009.9 |
| 20260905144558 | 70 | 46 | 3.0 | 9.0 | 0.00 | 0.00 | 0.00 | 77 | 1009.8 |
| 20260905143058 | 69 | 342 | 1.0 | 10.0 | 0.00 | 0.00 | 0.00 | 76 | 1009.9 |
| 20260905141611 | 69 | 51 | 2.0 | 5.0 | 0.00 | 0.00 | 0.00 | 79 | 1010.0 |
| 20260905140101 | 68 | 115 | 2.0 | 10.0 | 0.00 | 0.00 | 0.00 | 78 | 1009.9 |
| 20260905134604 | 68 | 16 | 1.0 | 10.0 | 0.00 | 0.00 | 0.00 | 81 | 1010.0 |
| 20260905133054 | 66 | 92 | 3.0 | 9.0 | 0.00 | 0.00 | 0.00 | 86 | 1010.1 |
| 20260905131553 | 64 | 76 | 1.0 | 4.0 | 0.00 | 0.00 | 0.00 | 94 | 1010.1 |
| 20260905130037 | 62 | 281 | 1.0 | 2.0 | 0.00 | 0.00 | 0.00 | 97 | 1010.2 |
| 20260905124534 | 61 | 281 | 0.0 | 2.0 | 0.00 | 0.00 | 0.00 | 97 | 1010.2 |
| 20260905123032 | 60 | 281 | 0.0 | 1.0 | 0.00 | 0.00 | 0.00 | 97 | 1010.2 |
| 20260905121532 | 58 | 281 | 0.0 | 2.0 | 0.00 | 0.00 | 0.00 | 97 | 1010.3 |
| 20260905120030 | 56 | 281 | 0.0 | 0.0 | 0.00 | 0.00 | 0.00 | 96 | 1010.2 |
| 20260905114541 | 56 | 281 | 0.0 | 0.0 | 0.00 | 0.00 | 0.00 | 96 | 1009.9 |
| 20260905113028 | 55 | 281 | 0.0 | 0.0 | 0.00 | 0.00 | 0.00 | 96 | 1009.8 |
| 20260905111528 | 55 | 281 | 0.0 | 2.0 | 0.00 | 0.00 | 0.00 | 96 | 1009.7 |
| 20260905110026 | 55 | 281 | 0.0 | 2.0 | 0.00 | 0.00 | 0.00 | 95 | 1009.7 |
| 20260905104526 | 55 | 281 | 1.0 | 2.0 | 0.00 | 0.00 | 0.00 | 95 | 1009.4 |
| 20260905103031 | 55 | 281 | 0.0 | 1.0 | 0.00 | 0.00 | 0.00 | 95 | 1009.1 |
| 20260905101522 | 55 | 281 | 0.0 | 0.0 | 0.00 | 0.00 | 0.00 | 95 | 1009.1 |
| 20260905100021 | 55 | 281 | 0.0 | 1.0 | 0.00 | 0.00 | 0.00 | 95 | 1009.0 |
| 20260905094520 | 55 | 281 | 0.0 | 1.0 | 0.00 | 0.00 | 0.00 | 95 | 1009.0 |
| 20260905093018 | 56 | 281 | 0.0 | 0.0 | 0.00 | 0.00 | 0.00 | 95 | 1009.1 |
| 20260905091517 | 56 | 281 | 0.0 | 2.0 | 0.00 | 0.00 | 0.00 | 95 | 1009.1 |
| 20260905090016 | 56 | 281 | 0.0 | 2.0 | 0.00 | 0.00 | 0.00 | 95 | 1009.1 |
| 20260905084518 | 56 | 281 | 0.0 | 0.0 | 0.00 | 0.00 | 0.00 | 95 | 1009.0 |
| 20260905083015 | 56 | 281 | 0.0 | 0.0 | 0.00 | 0.00 | 0.00 | 95 | 1008.9 |
| 20260905081512 | 56 | 281 | 0.0 | 0.0 | 0.00 | 0.00 | 0.00 | 94 | 1008.8 |
| 20260905080012 | 56 | 281 | 0.0 | 0.0 | 0.00 | 0.00 | 0.00 | 94 | 1009.0 |
| 20260905074516 | 57 | 281 | 0.0 | 0.0 | 0.00 | 0.00 | 0.00 | 94 | 1008.9 |
| 20260905073007 | 57 | 281 | 0.0 | 1.0 | 0.00 | 0.00 | 0.00 | 94 | 1009.0 |
| 20260905071505 | 57 | 281 | 0.0 | 1.0 | 0.00 | 0.00 | 0.00 | 94 | 1009.1 |
| 20260905070003 | 58 | 281 | 0.0 | 0.0 | 0.00 | 0.00 | 0.00 | 94 | 1009.2 |